Waarnemingen

Advertentie
Mijn weer
Landsort, Zweden (2567): temperatuur & dauwpunt: 14.11.2018 12:00:00 - 20.11.2018 12:00:00 (CET)Landsort, Zweden (2567): windsnelheid & windstoten: 14.11.2018 12:00:00 - 20.11.2018 12:00:00 (CET)Landsort, Zweden (2567): windrichting: 14.11.2018 12:00:00 - 20.11.2018 12:00:00 (CET)Landsort, Zweden (2567): luchtdruk: 14.11.2018 12:00:00 - 20.11.2018 12:00:00 (CET)Landsort, Zweden (2567): zicht: 14.11.2018 12:00:00 - 20.11.2018 12:00:00 (CET)Landsort, Zweden (2567): neerslag: 14.11.2018 12:00:00 - 20.11.2018 12:00:00 (CET)
Datum & Tijd tt [°C] td [°C] ff [km/u] ff [kn] fx [km/u] fx [kn] dd ppp [hPa] vv [km] rr [mm]
20.11.2018 12:00:00 3,0 1,7 11 6 20 11 NNO 1032,4 44 0,0
20.11.2018 11:00:00 3,2 1,6 13 7 20 11 NO 1032,8 50 0,0
20.11.2018 10:00:00 3,1 1,7 14 7 19 11 NO 1033,3 47 0,0
20.11.2018 09:00:00 2,8 1,6 12 7 26 14 NNO 1033,6 46 0,0
20.11.2018 08:00:00 3,1 1,7 16 9 26 14 NNO 1033,8 50 0,0
20.11.2018 07:00:00 - - - - - - - - - -
20.11.2018 06:00:00 - - - - - - - - - -
20.11.2018 05:00:00 3,5 1,5 15 8 29 16 ZO 1034,4 50 0,1
20.11.2018 04:00:00 3,2 2,2 14 8 25 14 NO 1035,1 21 0,1
20.11.2018 03:00:00 3,3 2,0 15 8 30 16 NO 1035,6 36 0,0
20.11.2018 02:00:00 3,8 1,8 11 6 31 17 OZO 1036,0 50 0,0
20.11.2018 01:00:00 4,4 2,0 23 13 31 17 O 1036,3 50 0,0
20.11.2018 00:00:00 4,5 1,5 22 12 38 21 OZO 1036,4 44 0,0
19.11.2018 23:00:00 4,8 0,9 22 12 38 21 O 1036,8 50 0,0
19.11.2018 22:00:00 4,6 1,0 27 15 42 23 O 1037,0 32 0,0
19.11.2018 21:00:00 3,1 2,4 21 12 42 23 NNO 1037,2 16 0,0
19.11.2018 20:00:00 3,1 2,5 24 13 40 21 NO 1037,3 12 0,1
19.11.2018 19:00:00 4,3 1,7 23 12 41 22 ONO 1037,2 26 0,0
19.11.2018 18:00:00 3,8 3,1 25 13 45 25 NNO 1037,3 30 0,1
19.11.2018 17:00:00 3,4 2,4 34 18 47 25 NO 1037,5 9 0,4
19.11.2018 16:00:00 3,2 2,2 39 21 49 26 NO 1037,7 6 0,5
19.11.2018 15:00:00 3,3 2,3 40 22 49 26 NO 1037,6 9 0,3
19.11.2018 14:00:00 3,6 2,1 35 19 49 26 NO 1037,7 30 0,1
19.11.2018 13:00:00 3,7 2,2 38 21 49 26 NO 1037,9 37 0,0
19.11.2018 12:00:00 3,3 1,8 39 21 48 26 NO 1038,2 11 0,1
19.11.2018 11:00:00 3,2 1,7 38 20 48 26 NO 1038,2 14 0,4
19.11.2018 10:00:00 3,1 1,0 36 19 50 27 NO 1038,3 12 0,4
19.11.2018 09:00:00 3,4 0,8 39 21 50 27 NO 1038,0 24 0,0
19.11.2018 08:00:00 3,5 0,9 39 21 50 27 NO 1037,9 20 0,0
19.11.2018 07:00:00 3,7 0,4 41 22 47 26 NO 1037,4 50 0,0
19.11.2018 06:00:00 3,9 0,5 37 20 46 25 NO 1037,4 50 0,0
19.11.2018 05:00:00 4,0 0,2 34 18 46 25 NO 1037,3 50 0,0
19.11.2018 04:00:00 4,0 0,1 28 15 42 23 NNO 1037,5 50 0,0
19.11.2018 03:00:00 4,2 0,4 32 18 44 24 NO 1037,5 50 0,0
19.11.2018 02:00:00 4,5 0,3 35 19 46 25 NO 1037,7 50 0,0
19.11.2018 01:00:00 4,6 0,3 35 19 46 25 NO 1038,0 50 0,0
19.11.2018 00:00:00 4,6 -0,1 38 20 48 26 NO 1037,7 49 0,0
18.11.2018 23:00:00 4,7 0,4 40 22 52 28 NO 1037,8 50 0,0
18.11.2018 22:00:00 4,9 0,8 39 21 60 33 NO 1037,9 50 0,0
18.11.2018 21:00:00 5,0 0,2 43 23 61 33 ONO 1037,9 50 0,0
18.11.2018 20:00:00 4,9 0,9 41 22 61 33 NO 1037,9 48 0,0
18.11.2018 19:00:00 4,9 0,5 51 28 61 33 NO 1037,7 46 0,0
18.11.2018 18:00:00 5,4 1,3 46 25 56 30 NO 1037,7 47 0,0
18.11.2018 17:00:00 5,6 1,7 38 21 58 31 NO 1037,9 50 0,0
18.11.2018 16:00:00 6,0 1,9 48 26 58 31 NO 1037,8 50 0,0
18.11.2018 15:00:00 6,4 2,3 33 18 51 28 NNO 1037,8 50 0,0
18.11.2018 14:00:00 6,4 2,6 27 15 52 28 NNO 1037,9 50 0,0
18.11.2018 13:00:00 6,5 2,6 36 20 52 28 NNO 1037,8 50 0,0
18.11.2018 12:00:00 6,5 2,9 38 20 51 28 NO 1037,8 50 0,0
18.11.2018 11:00:00 6,7 3,6 40 22 48 26 NO 1037,6 50 0,0
18.11.2018 10:00:00 6,6 3,8 27 15 42 23 NNO 1037,7 50 0,0
18.11.2018 09:00:00 6,2 3,8 22 12 49 27 N 1037,6 50 0,0
18.11.2018 08:00:00 6,1 3,7 34 18 49 27 NNO 1037,3 50 0,0
18.11.2018 07:00:00 5,7 3,5 31 17 49 26 NNO 1036,8 50 0,0
18.11.2018 06:00:00 4,8 3,0 25 14 49 26 N 1036,7 50 0,0
18.11.2018 05:00:00 5,0 3,2 36 19 46 25 NNO 1036,3 50 0,0
18.11.2018 04:00:00 4,3 2,9 24 13 38 20 N 1036,1 50 0,0
18.11.2018 03:00:00 4,3 2,9 18 10 29 16 N 1035,7 49 0,0
18.11.2018 02:00:00 4,4 2,9 17 9 29 16 N 1036,4 44 0,0
18.11.2018 01:00:00 4,7 3,0 14 7 29 16 N 1036,5 42 0,0
18.11.2018 00:00:00 5,1 3,5 17 9 33 18 N 1036,7 33 0,0
17.11.2018 23:00:00 5,3 4,2 18 10 33 18 N 1036,7 20 0,0
17.11.2018 22:00:00 5,5 4,5 22 12 31 17 NNW 1036,3 17 0,0
17.11.2018 21:00:00 5,7 4,7 24 13 33 18 NNW 1036,4 16 0,0
17.11.2018 20:00:00 5,8 4,7 20 11 33 18 NNW 1037,1 14 0,0
17.11.2018 19:00:00 5,9 5,0 21 11 29 16 NW 1036,8 12 0,0
17.11.2018 18:00:00 5,9 4,9 18 10 32 18 NW 1037,0 14 0,0
17.11.2018 17:00:00 6,2 5,1 18 10 34 18 WNW 1037,5 15 0,0
17.11.2018 16:00:00 6,4 5,1 24 13 34 18 WNW 1037,7 17 0,0
17.11.2018 15:00:00 6,5 5,0 26 14 30 16 WNW 1038,0 21 0,0
17.11.2018 14:00:00 6,5 4,9 20 11 30 16 WNW 1038,3 20 0,0
17.11.2018 13:00:00 6,4 4,9 22 12 34 19 W 1038,4 17 0,0
17.11.2018 12:00:00 6,2 4,6 21 11 37 20 W 1039,1 17 0,0
17.11.2018 11:00:00 - - - - - - - - - -
17.11.2018 10:00:00 5,9 4,4 27 14 33 18 W 1039,6 17 0,0
17.11.2018 09:00:00 6,1 4,1 26 14 33 18 W 1039,6 26 0,0
17.11.2018 08:00:00 5,7 4,0 24 13 37 20 W 1039,0 23 0,0
17.11.2018 07:00:00 5,5 3,9 26 14 40 21 W 1038,7 24 0,0
17.11.2018 06:00:00 5,7 4,0 34 18 42 23 W 1038,6 23 0,0
17.11.2018 05:00:00 6,0 4,3 34 18 43 23 W 1038,7 25 0,0
17.11.2018 04:00:00 6,3 4,1 37 20 43 23 W 1039,1 31 0,0
17.11.2018 03:00:00 - - - - - - - - - -
17.11.2018 02:00:00 6,6 4,7 31 17 45 24 WZW 1039,3 35 0,0
17.11.2018 01:00:00 6,9 5,1 32 17 45 24 WZW 1039,4 30 0,0
17.11.2018 00:00:00 7,2 5,1 34 18 42 23 WZW 1039,0 28 0,0
16.11.2018 23:00:00 7,3 5,4 29 16 42 23 WZW 1039,0 32 0,0
16.11.2018 22:00:00 7,4 5,6 32 18 41 22 WZW 1038,6 34 0,0
16.11.2018 21:00:00 7,5 5,8 34 18 45 24 WZW 1038,7 26 0,0
16.11.2018 20:00:00 7,5 6,1 29 16 45 24 ZW 1038,4 20 0,0
16.11.2018 19:00:00 7,6 5,7 33 18 44 24 WZW 1038,4 30 0,0
16.11.2018 18:00:00 7,5 5,7 29 16 42 23 ZW 1037,9 24 0,0
16.11.2018 17:00:00 7,5 6,0 29 16 42 23 ZW 1037,2 17 0,0
16.11.2018 16:00:00 7,4 6,1 27 15 45 24 ZW 1037,4 16 0,0
16.11.2018 15:00:00 7,4 6,1 31 17 45 24 ZW 1037,3 16 0,0
16.11.2018 14:00:00 7,5 5,9 29 16 42 23 ZZW 1037,3 21 0,0
16.11.2018 13:00:00 7,4 5,7 28 15 43 23 ZW 1037,4 20 0,0
16.11.2018 12:00:00 7,5 5,6 27 15 43 23 ZW 1037,2 23 0,0
16.11.2018 11:00:00 7,6 6,1 30 16 43 23 ZW 1036,8 19 0,0
16.11.2018 10:00:00 7,7 6,3 30 16 42 23 ZW 1036,8 20 0,0
16.11.2018 09:00:00 7,7 6,7 28 15 37 20 ZW 1036,2 18 0,0
16.11.2018 08:00:00 7,7 7,0 30 16 36 20 ZW 1035,6 9 0,0
16.11.2018 07:00:00 7,7 7,2 27 15 34 19 ZW 1035,0 7 0,0
16.11.2018 06:00:00 7,8 7,2 25 14 33 18 ZW 1034,3 8 0,0
16.11.2018 05:00:00 7,9 7,4 22 12 34 19 ZW 1034,0 7 0,0
16.11.2018 04:00:00 7,9 7,5 19 10 35 19 ZW 1034,1 7 0,0
16.11.2018 03:00:00 8,1 7,5 24 13 35 19 ZW 1033,6 8 0,0
16.11.2018 02:00:00 8,1 7,5 22 12 34 18 ZW 1033,2 8 0,0
16.11.2018 01:00:00 8,2 7,5 26 14 34 18 ZW 1032,8 9 0,0
16.11.2018 00:00:00 8,3 7,5 22 12 31 17 WZW 1032,5 10 0,0
15.11.2018 23:00:00 8,3 7,5 25 14 34 18 WZW 1032,1 14 0,0
15.11.2018 22:00:00 8,3 7,5 25 14 37 20 ZW 1031,5 15 0,0
15.11.2018 21:00:00 8,3 7,5 26 14 37 20 ZW 1031,1 15 0,0
15.11.2018 20:00:00 8,2 7,6 24 13 36 19 ZW 1030,8 13 0,0
15.11.2018 19:00:00 8,1 7,5 22 12 37 20 ZW 1030,3 11 0,0
15.11.2018 18:00:00 8,0 7,5 23 13 39 21 ZW 1030,1 10 0,0
15.11.2018 17:00:00 7,9 7,5 29 15 42 23 ZW 1029,8 8 0,0
15.11.2018 16:00:00 7,7 7,4 27 15 42 23 ZZW 1029,7 3,3 0,0
15.11.2018 15:00:00 7,6 7,2 27 15 39 21 ZW 1029,6 2,8 0,0
15.11.2018 14:00:00 7,7 7,0 26 14 39 21 ZZW 1029,2 10 0,0
15.11.2018 13:00:00 7,7 7,0 24 13 38 20 ZW 1028,8 14 0,0
15.11.2018 12:00:00 7,8 6,9 26 14 35 19 ZW 1028,6 16 0,0
15.11.2018 11:00:00 7,9 7,0 22 12 34 19 ZW 1028,5 17 0,0
15.11.2018 10:00:00 8,0 7,0 21 11 31 17 ZZW 1028,2 17 0,0
15.11.2018 09:00:00 7,6 6,8 21 11 31 17 ZW 1027,7 16 0,0
15.11.2018 08:00:00 7,2 6,6 22 12 29 16 ZW 1027,6 18 0,0
15.11.2018 07:00:00 7,2 6,4 21 11 29 16 ZW 1027,4 20 0,0
15.11.2018 06:00:00 7,2 6,4 19 11 26 14 ZW 1027,2 28 0,0
15.11.2018 05:00:00 6,9 6,2 18 10 29 16 WZW 1027,0 29 0,0
15.11.2018 04:00:00 7,0 6,2 18 10 29 16 ZW 1026,9 34 0,0
15.11.2018 03:00:00 7,2 6,2 16 9 24 13 WZW 1026,5 40 0,0
15.11.2018 02:00:00 7,1 6,2 19 10 23 13 WZW 1026,3 44 0,0
15.11.2018 01:00:00 7,2 6,3 16 8 29 16 WZW 1026,2 42 0,0
15.11.2018 00:00:00 7,4 6,4 16 9 29 16 WZW 1026,0 40 0,0
14.11.2018 23:00:00 7,5 6,4 22 12 27 14 ZW 1025,7 50 0,0
14.11.2018 22:00:00 7,5 6,2 18 10 23 13 ZW 1025,4 50 0,0
14.11.2018 21:00:00 7,6 5,9 14 7 25 13 WZW 1025,2 50 0,0
14.11.2018 20:00:00 7,8 6,0 20 11 27 15 W 1024,8 50 0,0
14.11.2018 19:00:00 8,0 5,8 18 10 29 16 W 1024,5 50 0,0
14.11.2018 18:00:00 8,0 5,9 21 11 29 16 W 1024,3 50 0,0
14.11.2018 17:00:00 7,9 6,3 18 10 29 15 W 1024,3 50 0,0
14.11.2018 16:00:00 7,9 6,4 11 6 28 15 WZW 1023,7 50 0,0
14.11.2018 15:00:00 8,1 5,9 15 8 29 16 W 1023,4 50 0,0
14.11.2018 14:00:00 8,0 6,3 19 11 29 16 W 1023,2 50 0,0
14.11.2018 13:00:00 8,1 5,9 17 9 27 15 WNW 1022,6 50 0,0
14.11.2018 12:00:00 8,1 6,2 16 9 29 15 WNW 1022,1 50 0,0

tt = temperatuur
td = dauwpunt
ff = windsnelheid
fx = windstoten
dd = windrichting
ppp = luchtdruk
vv = zicht
rr = neerslag

Weerstations in de omgeving